Regional Weather Roundup
Issued by NWS

Home | Current Version | Previous Version | Text Only | Print | Product List | Glossary On
Versions: 1 2 3 4 5 6 7 8 9 10 11 12 13 14 15 16 17 18 19 20 21 22 23 24 25 26 27 28 29 30 31 32 33 34 35 36 37 38 39 40 41 42 43 44 45 46 47 48 49 50
518
ASUS46 KSTO 261304
RWRCA

NORTHERN AND CENTRAL CA REGIONAL WEATHER ROUNDUP
NATIONAL WEATHER SERVICE SACRAMENTO CA
600 AM PDT THU MAY 26 2016

NOTE: FAIR INDICATES FEW OR NO CLOUDS BELOW 12,000 FEET WITH NO
SIGNIFICANT WEATHER AND/OR OBSTRUCTIONS TO VISIBILITY.

CAZ001-003-261400-
NORTHWEST AREA

CITY           SKY/WX    TMP DP  RH WIND       PRES   REMARKS
CRESCENT CITY  CLOUDY    54  51  90 CALM      30.19R
UKIAH          CLEAR     50  47  89 CALM      30.08R
$$

CAZ006-505>513-261400-
BAY AREA

CITY           SKY/WX    TMP DP  RH WIND       PRES   REMARKS
SANTA ROSA     CLEAR     48  47  96 CALM      30.05S
SAN RAFAEL     N/A       54  MM  MM MISG
NAPA           CLOUDY    55  52  89 SW12      30.07R
CONCORD        CLEAR     56  48  74 S10       30.06R
OAKLAND CITY   N/A       56  MM  MM MISG
OAKLAND        CLOUDY    57  49  74 SW7       30.08S
SAN FRAN CITY  N/A       53  MM  86 MISG
SAN FRAN ARPT  CLOUDY    56  47  71 SW7       30.08S
LIVERMORE      CLOUDY    55  48  77 SW7       30.07S
HAYWARD        CLOUDY    57  49  74 W9        30.08S
REDWOOD CITY   N/A       MM  MM  MM MISG
MOFFETT ARPT   CLEAR     53  47  79 SE3       30.09S
SAN JOSE ARPT  PTCLDY    51  45  79 E6        30.09S
$$
CAZ034-037-514>518-261400-
CENTRAL COAST

CITY           SKY/WX    TMP DP  RH WIND       PRES   REMARKS
WATSONVILLE    CLOUDY    54  50  86 CALM      30.11R
SALINAS        CLOUDY    54  49  83 SW7       30.11S
MONTEREY       CLOUDY    53  51  93 W5        30.12S
SAN LUIS OBISP MOCLDY    50  46  86 CALM      30.09R FOG
SANTA MARIA    CLOUDY    51  51 100 MISG      30.09S FOG
$$
CAZ015-016-261400-
NORTHERN SACRAMENTO VALLEY

CITY           SKY/WX    TMP DP  RH WIND       PRES   REMARKS
REDDING        CLEAR     55  51  86 N3        30.05R
RED BLUFF      CLEAR     58  53  84 CALM      30.06R
OROVILLE       CLEAR     58  50  75 SE3       30.06S
$$
CAZ016>018-261400-
SOUTHERN SACRAMENTO VALLEY

CITY           SKY/WX    TMP DP  RH WIND       PRES   REMARKS
AUBURN         CLEAR     54  52  94 CALM      30.06R
BEALE AFB      CLEAR     54  51  89 CALM      30.04R
LINCOLN        FAIR      52  46  82 CALM      30.04R
MARYSVILLE     CLEAR     54  51  90 SE3       30.05R
SAC INTL ARPT  CLEAR     54  50  86 S8        30.03S
MATHER AIRPORT CLEAR     52  50  93 CALM      30.04
DOWNTOWN SAC   N/A       55  MM  MM MISG
SAC EXEC ARPT  CLEAR     54  50  86 S7        30.04S
VACAVILLE      CLEAR     53  49  86 W3        30.04S
TRAVIS AFB     CLEAR     53  51  93 SW14      30.03R
$$
CAZ019>021-261400-
SAN JOAQUIN VALLEY

CITY           SKY/WX    TMP DP  RH WIND       PRES   REMARKS
STOCKTON       CLEAR     55  49  80 W8        30.04R
MODESTO        CLEAR     55  48  77 NW3       30.04R
MERCED         CLEAR     55  48  77 W5        30.04R
LEMOORE        CLEAR     50  41  71 W3        30.05R
FRESNO         PTCLDY    55  48  77 NW8       30.05R
HANFORD        CLEAR     57  46  66 NW6       30.04R
PORTERVILLE    CLOUDY    61  52  72 W3        30.06R
BAKERSFIELD    CLEAR     57  49  74 N3        30.05R
$$
CAZ011-012-071-261400-
NORTHERN MOUNTAINS

CITY           SKY/WX    TMP DP  RH WIND       PRES   REMARKS
YREKA          CLEAR     40  36  86 E6        30.17R
MOUNT SHASTA   CLEAR     43  38  82 CALM      30.14S
ALTURAS        CLEAR     38  35  89 W5        30.15R WCI  34
$$
CAZ011-012-071-261400-
SIERRA NEVADA MTNS

CITY           SKY/WX    TMP DP  RH WIND       PRES   REMARKS
BLUE CANYON    PTCLDY    47  37  68 NE5       30.14S
TAHOE VLY ARPT CLEAR     32  31  96 S5        30.16S WCI  27
MAMMOTH LAKES  CLOUDY    37  37 100 W6        30.17S WCI  32
$$




USA.gov is the U.S. government's official web portal to all federal, state and local government web resources and services.